Weather History for Nebraska City, NE

Change the Weather History Date:

Monday, November 4, 2013

  Actual Average (KSDA) Record (KSDA)
Temperature  
Mean Temperature 51 °F -  
Max Temperature 59 °F 52 °F 77 °F (2001)
Min Temperature 43 °F 32 °F 2 °F (1991)
Degree Days  
Heating Degree Days 14    
Growing Degree Days 1 (Base 50)    
Moisture  
Dew Point 40 °F    
Average Humidity 66    
Maximum Humidity 81    
Minimum Humidity 48    
Precipitation  
Precipitation 0.00 in - - ()
Sea Level Pressure  
Sea Level Pressure 29.95 in    
Wind  
Wind Speed 11 mph (ESE)    
Max Wind Speed 16 mph    
Max Gust Speed 23 mph    
Visibility 10 miles    
Events      
Averages and records for this station are not official NWS values.
T = Trace of Precipitation, MM = Missing Value Source: NWS Daily Summary

Daily Weather History Graph

Daily Weather History Graph

Search for Another Location

Airport:

Trip Planner

Search our weather history database for the weather conditions in past years. The results will help you decide how hot, cold, wet, or windy it might be!

Date:

Astronomy

Nov. 04, 2013 Rise Set
Actual Time 6:57 AM CST 5:16 PM CST
Civil Twilight 6:28 AM CST 5:44 PM CST
Nautical Twilight 5:56 AM CST 6:17 PM CST
Astronomical Twilight 5:24 AM CST 6:49 PM CST
Moon 8:09 AM CST (11/4) 6:21 PM CST (11/4)
Length of Visible Light 11h 15m
Length of Day
10h 18m
New Moon, 2% of the Moon is Illuminated
Nov 4
New Moon
Nov 9
First Quarter
Nov 17
Full
Nov 25
Last Quarter
Dec 2
New

Hourly Weather History & Observations

Time (CST) Temp. Windchill Dew Point Humidity Pressure Visibility Wind Dir Wind Speed Gust Speed Precip Events Conditions
12:15 AM 53.2 °F - 37.9 °F 56% 29.82 in 10.0 mi South 13.8 mph - N/A   Overcast
12:35 AM 53.1 °F - 38.5 °F 58% 29.81 in 10.0 mi SSE 15.0 mph 18.4 mph N/A   Overcast
12:55 AM 52.7 °F - 39.0 °F 60% 29.81 in 10.0 mi South 15.0 mph - N/A   Scattered Clouds
1:15 AM 52.9 °F - 38.8 °F 59% 29.81 in 10.0 mi South 15.0 mph 20.7 mph N/A   Scattered Clouds
1:35 AM 52.9 °F - 39.2 °F 60% 29.81 in 10.0 mi South 11.5 mph - N/A   Scattered Clouds
1:55 AM 52.5 °F - 39.2 °F 61% 29.81 in 10.0 mi South 13.8 mph - N/A   Scattered Clouds
2:15 AM 52.0 °F - 39.2 °F 62% 29.81 in 10.0 mi South 13.8 mph - N/A   Clear
2:35 AM 52.2 °F - 39.4 °F 62% 29.81 in 10.0 mi South 15.0 mph - N/A   Clear
2:55 AM 52.2 °F - 39.6 °F 62% 29.80 in 10.0 mi South 16.1 mph - N/A   Clear
3:15 AM 52.3 °F - 39.7 °F 62% 29.81 in 10.0 mi South 11.5 mph - N/A   Scattered Clouds
3:35 AM 52.5 °F - 40.1 °F 63% 29.81 in 10.0 mi South 12.7 mph - N/A   Scattered Clouds
3:55 AM 52.2 °F - 40.3 °F 64% 29.81 in 10.0 mi South 11.5 mph - N/A   Mostly Cloudy
4:15 AM 51.6 °F - 40.3 °F 65% 29.81 in 10.0 mi South 12.7 mph - N/A   Overcast
4:35 AM 51.1 °F - 40.6 °F 67% 29.81 in 10.0 mi South 12.7 mph - N/A   Mostly Cloudy
4:55 AM 51.8 °F - 41.0 °F 67% 29.81 in 10.0 mi South 13.8 mph 18.4 mph N/A   Mostly Cloudy
5:15 AM 51.3 °F - 41.2 °F 68% 29.82 in 10.0 mi South 11.5 mph - N/A   Mostly Cloudy
5:35 AM 51.4 °F - 41.4 °F 68% 29.81 in 10.0 mi South 15.0 mph - N/A   Scattered Clouds
5:55 AM 50.5 °F - 41.4 °F 71% 29.81 in 10.0 mi South 13.8 mph 19.6 mph N/A   Clear
6:15 AM 50.0 °F - 41.4 °F 72% 29.82 in 10.0 mi South 15.0 mph 20.7 mph N/A   Clear
6:35 AM 50.2 °F - 41.7 °F 73% 29.83 in 10.0 mi South 12.7 mph 23.0 mph N/A   Clear
6:55 AM 49.6 °F - 41.7 °F 74% 29.83 in 10.0 mi South 12.7 mph - N/A   Clear
7:15 AM 49.1 °F - 41.9 °F 76% 29.84 in 10.0 mi South 12.7 mph - N/A   Clear
7:35 AM 49.1 °F - 42.1 °F 77% 29.84 in 10.0 mi South 11.5 mph - N/A   Mostly Cloudy
7:55 AM 49.8 °F - 42.8 °F 77% 29.85 in 10.0 mi South 11.5 mph - N/A   Mostly Cloudy
8:15 AM 50.4 °F - 42.8 °F 75% 29.86 in 10.0 mi South 12.7 mph - N/A   Mostly Cloudy
8:35 AM 50.7 °F - 42.8 °F 74% 29.87 in 10.0 mi South 11.5 mph 16.1 mph N/A   Mostly Cloudy
8:55 AM 51.3 °F - 42.8 °F 73% 29.88 in 10.0 mi South 13.8 mph - N/A   Overcast
9:15 AM 51.8 °F - 42.8 °F 71% 29.89 in 10.0 mi South 13.8 mph - N/A   Overcast
9:35 AM 52.3 °F - 43.0 °F 70% 29.90 in 10.0 mi SSW 11.5 mph - N/A   Overcast
9:55 AM 52.7 °F - 43.0 °F 70% 29.91 in 10.0 mi SW 8.1 mph - N/A   Overcast
10:15 AM 53.4 °F - 43.3 °F 69% 29.92 in 10.0 mi SW 9.2 mph - N/A   Overcast
10:35 AM 54.7 °F - 43.9 °F 67% 29.92 in 10.0 mi SW 11.5 mph - N/A   Overcast
10:55 AM 55.6 °F - 43.7 °F 64% 29.93 in 10.0 mi WSW 10.4 mph - N/A   Overcast
11:15 AM 55.4 °F - 43.5 °F 64% 29.94 in 10.0 mi West 16.1 mph - N/A   Overcast
11:35 AM 55.8 °F - 43.7 °F 64% 29.95 in 10.0 mi West 13.8 mph - N/A   Overcast
11:55 AM 56.7 °F - 43.7 °F 62% 29.95 in 10.0 mi West 10.4 mph - N/A   Overcast
12:15 PM 57.6 °F - 43.3 °F 59% 29.95 in 10.0 mi WNW 10.4 mph 17.3 mph N/A   Mostly Cloudy
12:35 PM 57.2 °F - 42.3 °F 57% 29.95 in 10.0 mi West 9.2 mph - N/A   Scattered Clouds
12:55 PM 58.3 °F - 42.1 °F 55% 29.96 in 10.0 mi NW 5.8 mph - N/A   Scattered Clouds
1:15 PM 57.2 °F - 41.9 °F 57% 29.96 in 10.0 mi NNW 10.4 mph - N/A   Mostly Cloudy
1:35 PM 58.3 °F - 41.4 °F 53% 29.96 in 10.0 mi North 9.2 mph - N/A   Scattered Clouds
1:55 PM 59.0 °F - 41.0 °F 51% 29.97 in 10.0 mi North 9.2 mph - N/A   Scattered Clouds
2:15 PM 58.1 °F - 39.9 °F 51% 29.97 in 10.0 mi NNW 12.7 mph 17.3 mph N/A   Clear
2:35 PM 58.1 °F - 38.5 °F 48% 29.99 in 10.0 mi North 11.5 mph 16.1 mph N/A   Clear
2:55 PM 57.4 °F - 37.6 °F 48% 29.99 in 10.0 mi North 9.2 mph - N/A   Clear
3:15 PM 57.2 °F - 38.5 °F 50% 29.99 in 10.0 mi NNE 11.5 mph - N/A   Clear
3:35 PM 56.5 °F - 37.6 °F 49% 30.00 in 10.0 mi NNE 12.7 mph - N/A   Clear
3:55 PM 55.8 °F - 36.9 °F 49% 30.01 in 10.0 mi NNE 9.2 mph - N/A   Clear
4:15 PM 55.0 °F - 36.9 °F 50% 30.02 in 10.0 mi NNE 10.4 mph - N/A   Clear
4:35 PM 54.0 °F - 37.0 °F 53% 30.03 in 10.0 mi North 9.2 mph - N/A   Clear
4:55 PM 52.2 °F - 36.9 °F 56% 30.04 in 10.0 mi North 6.9 mph - N/A   Clear
5:15 PM 50.5 °F - 36.7 °F 59% 30.04 in 10.0 mi North 6.9 mph - N/A   Clear
5:35 PM 48.9 °F - 36.5 °F 62% 30.05 in 10.0 mi North 6.9 mph - N/A   Clear
5:55 PM 47.8 °F - 36.5 °F 65% 30.05 in 10.0 mi North 6.9 mph - N/A   Clear
6:15 PM 47.5 °F - 36.5 °F 66% 30.07 in 10.0 mi North 5.8 mph - N/A   Clear
6:35 PM 45.5 °F 43.2 °F 35.6 °F 68% 30.07 in 10.0 mi NE 4.6 mph - N/A   Clear
6:55 PM 46.9 °F - 36.5 °F 67% 30.09 in 10.0 mi NNE 4.6 mph - N/A   Clear
7:15 PM 43.3 °F 40.7 °F 35.8 °F 75% 30.09 in 10.0 mi NE 4.6 mph - N/A   Clear
7:35 PM 45.3 °F 44.0 °F 36.5 °F 71% 30.10 in 10.0 mi NE 3.5 mph - N/A   Scattered Clouds
7:55 PM 44.6 °F 43.1 °F 36.0 °F 72% 30.10 in 10.0 mi NE 3.5 mph - N/A   Scattered Clouds
8:15 PM 44.6 °F 42.2 °F 36.3 °F 73% 30.10 in 10.0 mi NE 4.6 mph - N/A   Scattered Clouds
8:35 PM 44.4 °F 42.9 °F 36.5 °F 74% 30.11 in 10.0 mi NE 3.5 mph - N/A   Mostly Cloudy
8:55 PM 43.9 °F 41.3 °F 36.5 °F 75% 30.11 in 10.0 mi NE 4.6 mph - N/A   Mostly Cloudy
9:15 PM 45.0 °F 42.6 °F 36.5 °F 72% 30.12 in 10.0 mi NE 4.6 mph - N/A   Mostly Cloudy
9:35 PM 44.6 °F 43.1 °F 36.7 °F 74% 30.12 in 10.0 mi NNE 3.5 mph - N/A   Overcast
9:55 PM 43.9 °F 41.3 °F 36.9 °F 76% 30.13 in 10.0 mi North 4.6 mph - N/A   Mostly Cloudy
10:15 PM 44.6 °F 42.2 °F 37.8 °F 77% 30.13 in 10.0 mi NE 4.6 mph - N/A   Mostly Cloudy
10:35 PM 45.0 °F 43.5 °F 39.0 °F 80% 30.12 in 10.0 mi NE 3.5 mph - N/A   Overcast
10:55 PM 45.3 °F 43.0 °F 39.0 °F 79% 30.12 in 10.0 mi NE 4.6 mph - N/A   Overcast
11:15 PM 43.7 °F 40.3 °F 38.3 °F 81% 30.12 in 10.0 mi NE 5.8 mph - N/A   Mostly Cloudy
11:35 PM 44.8 °F 42.4 °F 39.2 °F 81% 30.12 in 10.0 mi NE 4.6 mph - N/A   Overcast
11:55 PM 45.5 °F 44.2 °F 39.6 °F 80% 30.12 in 10.0 mi NNE 3.5 mph - N/A   Overcast